KD8YBJ Weather Reports


time (UTC)temp
F
wind
direction
speed
knots
gust
knots
rain 1hr
in
rain 24hr
in
rain mn
in
humidity
%
barometer
mb
20260906124520 62 113 0.0 1.7 0.00 0.08 0.00 88 1020.2
20260906123521 61 114 0.9 1.7 0.00 0.08 0.00 89 1020.1
20260906122521 61 105 0.0 1.7 0.00 0.08 0.00 91 1020.0
20260906121521 59 92 0.9 1.7 0.00 0.08 0.00 94 1020.0
20260906120521 58 234 0.0 1.7 0.00 0.08 0.00 96 1019.9
20260906115521 58 303 0.0 1.7 0.00 0.08 0.00 96 1019.8
20260906114541 58 41 0.0 0.0 0.00 0.08 0.00 96 1019.8
20260906113522 58 2 0.0 1.7 0.00 0.08 0.00 96 1019.7
20260906112522 58 356 0.0 1.7 0.00 0.08 0.00 96 1019.4
20260906111524 58 353 0.0 0.9 0.00 0.08 0.00 96 1019.3
20260906110522 58 347 0.0 0.9 0.00 0.08 0.00 96 1019.4
20260906105522 58 105 0.0 0.9 0.00 0.08 0.00 96 1019.3
20260906104522 58 0.0 0.0 0.00 0.08 0.00 96 1019.4
20260906103523 59 356 0.0 0.9 0.00 0.08 0.00 95 1019.3
20260906102522 59 126 0.0 1.7 0.00 0.08 0.00 95 1019.2
20260906101523 59 61 0.0 0.9 0.00 0.08 0.00 95 1019.2
20260906100523 59 108 0.0 0.9 0.00 0.08 0.00 96 1019.2
20260906095603 59 105 0.0 0.9 0.00 0.08 0.00 96 1019.2
20260906094524 59 0.0 0.0 0.00 0.08 0.00 96 1019.1
20260906093559 59 287 0.0 0.9 0.00 0.08 0.00 95 1019.1
20260906092524 59 349 0.0 0.9 0.00 0.08 0.00 95 1019.1
20260906091604 59 144 0.0 0.9 0.00 0.08 0.00 95 1019.0
20260906090524 59 293 0.0 1.7 0.00 0.08 0.00 95 1019.0
20260906085524 59 321 0.0 0.9 0.00 0.08 0.00 95 1019.0
20260906084545 59 290 0.0 0.9 0.00 0.08 0.00 95 1018.9
20260906083525 60 304 0.0 0.9 0.00 0.08 0.00 94 1018.8
20260906082547 60 0.0 0.0 0.00 0.08 0.00 94 1018.6
20260906081525 60 0.0 0.0 0.00 0.08 0.00 93 1018.4
20260906080525 61 280 0.0 0.9 0.00 0.08 0.00 93 1018.3
20260906075525 61 24 0.0 0.9 0.00 0.08 0.00 93 1018.2
20260906074526 61 0.0 0.0 0.00 0.08 0.00 92 1018.2
20260906073526 61 295 0.0 0.9 0.00 0.08 0.00 92 1018.2
20260906072526 62 67 0.0 1.7 0.00 0.08 0.00 91 1018.3
20260906071526 62 95 0.9 2.6 0.00 0.08 0.00 91 1018.2
20260906070526 62 317 0.0 1.7 0.00 0.08 0.00 91 1018.1
20260906065526 62 101 0.9 1.7 0.00 0.08 0.00 91 1018.2
20260906064527 62 355 0.0 1.7 0.00 0.08 0.00 91 1018.3
20260906063526 63 64 0.0 1.7 0.00 0.08 0.00 90 1018.3
20260906062527 63 128 0.0 1.7 0.00 0.08 0.00 90 1018.3
20260906061527 63 99 0.9 2.6 0.00 0.08 0.00 90 1018.3
20260906060527 63 75 0.0 1.7 0.00 0.08 0.00 90 1018.2
20260906055547 63 78 0.0 0.9 0.00 0.08 0.00 90 1018.3
20260906054527 63 0.0 0.0 0.00 0.08 0.00 90 1018.3
20260906053527 64 110 0.0 2.6 0.00 0.08 0.00 89 1018.1
20260906052528 64 35 0.0 0.0 0.00 0.08 0.00 88 1018.0
20260906051548 64 86 0.9 2.6 0.00 0.08 0.00 89 1018.0
20260906050528 65 0.0 0.0 0.00 0.08 0.00 89 1017.9
20260906045528 65 312 0.0 0.9 0.00 0.08 0.00 88 1017.9
20260906044549 65 77 0.0 0.9 0.00 0.08 0.00 87 1017.8
20260906043529 66 340 0.0 0.9 0.00 0.08 0.00 87 1017.8
20260906042529 66 51 0.0 0.0 0.00 0.08 0.00 87 1017.7
20260906041529 66 90 0.0 0.9 0.00 0.08 0.00 88 1017.5
20260906040529 66 30 0.0 0.9 0.00 0.08 0.00 92 1017.4
20260906035549 66 105 0.9 3.5 0.00 0.08 0.08 95 1017.4
20260906034530 65 96 0.9 2.6 0.00 0.08 0.08 97 1017.2
20260906033530 66 301 0.0 0.9 0.00 0.08 0.08 97 1017.1
20260906032530 66 300 0.0 0.9 0.00 0.08 0.08 97 1017.1
20260906031530 67 318 0.0 0.0 0.00 0.08 0.08 97 1017.0
20260906030530 67 320 0.0 0.9 0.00 0.08 0.08 97 1016.9
20260906025515 67 0.0 0.0 0.00 0.08 0.08 97 1016.9
20260906024515 67 308 0.0 1.7 0.00 0.08 0.08 97 1016.8
20260906023516 68 238 0.0 0.9 0.00 0.08 0.08 97 1016.8
20260906022515 68 0.0 0.0 0.00 0.08 0.08 97 1016.8
20260906021516 68 309 0.0 0.9 0.00 0.08 0.08 97 1016.6
20260906020516 69 278 0.0 0.9 0.00 0.08 0.08 96 1016.5
20260906015516 69 313 0.0 0.9 0.00 0.08 0.08 96 1016.5
20260906014516 69 146 0.0 0.9 0.00 0.08 0.08 96 1016.5
20260906013517 70 77 0.9 1.7 0.00 0.08 0.08 96 1016.4
20260906012517 70 313 0.9 1.7 0.00 0.08 0.08 95 1016.2
20260906011517 71 325 0.0 0.9 0.00 0.08 0.08 94 1016.1
20260906010517 71 0.0 0.0 0.00 0.08 0.08 94 1015.9
20260906005517 72 294 0.0 1.7 0.00 0.08 0.08 93 1015.8
20260906004517 72 0.0 0.0 0.00 0.08 0.08 93 1015.7
20260906003517 73 0.0 0.0 0.00 0.08 0.08 92 1015.7
20260906002518 73 278 0.9 2.6 0.00 0.08 0.08 91 1015.6
20260906001518 74 301 0.9 1.7 0.00 0.08 0.08 89 1015.7
20260906000518 74 257 0.0 1.7 0.00 0.08 0.08 88 1015.7
20260905235518 74 264 0.9 1.7 0.00 0.08 0.08 88 1015.8
20260905234519 75 263 0.9 1.7 0.00 0.08 0.08 87 1015.8
20260905233519 75 256 0.9 2.6 0.00 0.08 0.08 85 1015.8
20260905232539 75 246 0.0 1.7 0.00 0.08 0.08 85 1015.8
20260905231519 75 269 0.9 2.6 0.00 0.08 0.08 85 1015.8
20260905230519 76 270 0.9 1.7 0.00 0.08 0.08 87 1015.6
20260905225519 76 0.0 0.0 0.00 0.08 0.08 86 1015.6
20260905224519 77 265 1.7 2.6 0.00 0.08 0.08 85 1015.7
20260905223520 82 293 2.6 4.3 0.00 0.08 0.08 74 1015.7
20260905222540 82 298 0.0 1.7 0.00 0.08 0.08 70 1015.5
20260905221600 82 233 0.0 1.7 0.00 0.08 0.08 70 1015.5
20260905220520 81 144 0.0 0.9 0.00 0.08 0.08 71 1015.4
20260905215520 80 222 0.9 2.6 0.00 0.08 0.08 72 1015.3
20260905214521 80 136 0.9 4.3 0.00 0.08 0.08 72 1015.2
20260905213520 79 108 0.9 2.6 0.00 0.08 0.08 73 1015.1
20260905212520 78 56 0.0 0.9 0.00 0.08 0.08 75 1015.2
20260905211521 77 106 0.9 2.6 0.00 0.08 0.08 78 1015.4
20260905210521 77 89 1.7 5.2 0.00 0.08 0.08 78 1015.4
20260905205521 78 100 0.9 3.5 0.00 0.08 0.08 79 1015.2
20260905204522 77 38 0.9 2.6 0.00 0.08 0.08 81 1015.2
20260905203602 76 45 0.9 1.7 0.00 0.08 0.08 82 1015.3
20260905202522 75 71 0.9 2.6 0.00 0.08 0.08 84 1015.4
20260905201522 73 55 0.0 2.6 0.00 0.08 0.08 87 1015.4
20260905200517 73 74 0.9 3.5 0.00 0.08 0.08 88 1015.5
20260905195537 73 85 0.0 2.6 0.00 0.08 0.08 89 1015.6
20260905194537 73 79 0.9 3.5 0.00 0.08 0.08 89 1015.6
20260905193517 73 67 0.9 3.5 0.00 0.08 0.08 90 1015.6
20260905192537 72 79 0.9 4.3 0.00 0.08 0.08 91 1015.7
20260905191517 72 74 0.9 3.5 0.01 0.08 0.08 91 1015.8
20260905190518 72 77 1.7 6.1 0.03 0.08 0.08 93 1015.7
20260905185515 71 72 0.9 2.6 0.03 0.08 0.08 96 1015.8
20260905184538 70 88 0.0 4.3 0.03 0.07 0.07 97 1015.9
20260905183515 69 107 0.0 1.7 0.02 0.07 0.07 97 1016.1
20260905182515 69 75 0.0 1.7 0.02 0.07 0.07 96 1016.3
20260905181515 69 93 0.9 2.6 0.02 0.07 0.07 96 1016.3
20260905180516 69 94 0.0 2.6 0.00 0.05 0.05 96 1016.2
20260905175516 69 2 0.0 1.7 0.00 0.05 0.05 95 1016.2
20260905174516 69 86 0.9 2.6 0.00 0.05 0.05 95 1016.1
20260905173517 69 354 0.0 0.9 0.00 0.05 0.05 95 1016.1
20260905172516 68 94 0.9 5.2 0.00 0.05 0.05 95 1016.0
20260905171517 68 84 0.9 4.3 0.00 0.05 0.05 95 1016.0
20260905170517 68 87 0.9 5.2 0.00 0.05 0.05 95 1016.0
20260905165517 68 82 0.9 3.5 0.00 0.05 0.05 95 1016.0
20260905164520 68 105 0.9 5.2 0.00 0.05 0.05 95 1016.0
20260905163517 68 102 0.9 4.3 0.00 0.05 0.05 96 1016.0
20260905162518 68 82 0.9 4.3 0.00 0.05 0.05 96 1016.0
20260905161517 68 83 0.9 3.5 0.01 0.05 0.05 96 1016.0
20260905160518 68 91 0.9 4.3 0.02 0.05 0.05 95 1015.9
20260905155515 67 90 1.7 3.5 0.03 0.06 0.05 95 1015.8
20260905154518 67 75 0.9 4.3 0.04 0.08 0.05 96 1015.6
20260905153515 67 72 1.7 7.0 0.05 0.12 0.05 95 1015.5
20260905152515 67 81 0.9 4.3 0.05 0.14 0.05 95 1015.4
20260905151515 67 102 2.6 6.1 0.04 0.16 0.04 95 1015.4
20260905150516 67 99 1.7 6.1 0.03 0.17 0.03 94 1015.5
20260905145516 68 78 1.7 5.2 0.02 0.18 0.02 93 1015.5
20260905144516 68 68 0.9 2.6 0.01 0.19 0.01 91 1015.4
20260905143516 69 83 2.6 5.2 0.00 0.18 0.00 88 1015.4
20260905142517 69 107 0.9 4.3 0.00 0.19 0.00 88 1015.4
20260905141517 69 85 0.9 4.3 0.00 0.22 0.00 88 1015.4
20260905140557 69 114 0.0 2.6 0.00 0.24 0.00 89 1015.3
20260905135517 69 51 0.9 2.6 0.00 0.27 0.00 88 1015.3
20260905134517 69 95 0.9 4.3 0.00 0.29 0.00 88 1015.2
20260905133520 70 97 1.7 5.2 0.00 0.30 0.00 88 1015.3
20260905132517 70 88 1.7 5.2 0.00 0.30 0.00 88 1015.2
20260905131517 70 98 3.5 7.0 0.00 0.31 0.00 89 1014.9
20260905130518 70 99 1.7 7.8 0.00 0.33 0.00 91 1014.9
20260905125518 69 101 1.7 4.3 0.00 0.37 0.00 93 1014.7